Regional Weather Roundup
Issued by NWS

Home | Current Version | Previous Version | Graphics & Text | Print | Product List | Glossary On
Versions: 1 2 3 4 5 6 7 8 9 10 11 12 13 14 15 16 17 18 19 20 21 22 23 24 25 26 27 28 29 30 31 32 33 34 35 36 37 38 39 40 41 42 43 44 45 46 47 48 49 50
550
ASUS45 KBOI 180810
RWRID

IDAHO REGIONAL WEATHER ROUNDUP
NATIONAL WEATHER SERVICE BOISE ID
200 AM MDT FRI AUG 18 2017

NOTE: "FAIR" INDICATES FEW OR NO CLOUDS BELOW 12000 FEET
WITH NO SIGNIFICANT WEATHER AND/OR OBSTRUCTIONS TO VISIBILITY

IDZ012-014-180900-
SOUTHWEST IDAHO


CITY           SKY/WX    TMP DP  RH WIND       PRES   REMARKS
BOISE          CLEAR     67  38  34 SE5       30.05S
CALDWELL       CLEAR     59  50  72 SE3       30.04S
MOUNTAIN HOME  CLEAR     65  35  32 NW8       30.05S
$$

IDZ016-017-180900-
SOUTHCENTRAL IDAHO


CITY           SKY/WX    TMP DP  RH WIND       PRES   REMARKS
BURLEY         CLEAR     56  42  59 SW9       30.10F
JEROME         CLEAR     63  38  39 S7        30.11F
TWIN FALLS     CLEAR     65  36  34 S14       30.12F
$$

IDZ019>023-180900-
SOUTHEAST IDAHO


CITY           SKY/WX    TMP DP  RH WIND       PRES   REMARKS
IDAHO FALLS    CLEAR     61  38  42 S6        30.16S
POCATELLO      CLEAR     59  36  42 SE3       30.14S
REXBURG        CLEAR     56  40  55 NE6       30.17R
$$

IDZ006-010-011-018-031-032-180900-
CENTRAL IDAHO MOUNTAINS


CITY           SKY/WX    TMP DP  RH WIND       PRES   REMARKS
MCCALL         CLEAR     54  41  61 CALM      30.18S
HAILEY         CLEAR     59  41  51 NW10      30.19S
STANLEY          N/A     44  33  65 S3        30.29F
SALMON         CLEAR     54  43  66 CALM      30.15R
CHALLIS        PTCLDY    57  36  45 CALM      30.19R
$$

IDZ002-004-006-007-026-180900-
NORTHERN IDAHO


CITY           SKY/WX    TMP DP  RH WIND       PRES   REMARKS
LEWISTON       CLEAR     65  40  39 SE5       30.03S
LOWELL           N/A     60  50  69 NW3       30.09R
COEUR D`ALENE  CLEAR     63  48  58 S5        30.06S
MULLAN PASS    CLEAR     56  36  47 VRB3      30.23S
$$




USA.gov is the U.S. government's official web portal to all federal, state and local government web resources and services.